• en France
  • Liste des pays
  • À 7 jours
  • Température de l'eau
  • Carte satellitaire
  • Carte météo
  • Widgets météo
  • user-avatar
    Se connecter

    Météo par heure à Dumfries

    Ce jour, 20 Novembre, Lundi

    Heure Température Précipitation Vent Pression Humidité
    00:00 +4°C° 0 mm 2 m/s 756 mmHg 94%
    01:00 +4°C° 1 mm 2 m/s 755 mmHg 95%
    02:00 +4°C° 1 mm 3 m/s 755 mmHg 95%
    03:00 +4°C° 1 mm 3 m/s 754 mmHg 96%
    04:00 +5°C° 0,8 mm 2 m/s 753 mmHg 97%
    05:00 +5°C° 0,8 mm 2 m/s 752 mmHg 97%
    06:00 +5°C° 0 mm 2 m/s 752 mmHg 96%
    07:00 +5°C° 1,2 mm 2 m/s 751 mmHg 96%
    08:00 +5°C° 1,2 mm 2 m/s 751 mmHg 97%
    09:00 +6°C° 1,2 mm 2 m/s 750 mmHg 97%
    10:00 +6°C° 0,8 mm 2 m/s 751 mmHg 97%
    11:00 +6°C° 0,8 mm 2 m/s 751 mmHg 97%
    12:00 +8°C° 0,8 mm 1 m/s 751 mmHg 96%
    13:00 +8°C° 0,1 mm 1 m/s 751 mmHg 96%
    14:00 +8°C° 0,1 mm 1 m/s 751 mmHg 97%
    15:00 +8°C° 0,1 mm 1 m/s 751 mmHg 97%
    16:00 +8°C° 0,1 mm 1 m/s 751 mmHg 97%
    17:00 +8°C° 0,1 mm 1 m/s 751 mmHg 97%
    18:00 +8°C° 0,1 mm 1 m/s 752 mmHg 98%
    19:00 +8°C° 0,1 mm 1 m/s 752 mmHg 98%
    20:00 +8°C° 0,1 mm 1 m/s 752 mmHg 98%
    21:00 +8°C° 0,1 mm 1 m/s 752 mmHg 98%
    22:00 +9°C° 0,1 mm 1 m/s 752 mmHg 98%
    23:00 +9°C° 0,1 mm 1 m/s 751 mmHg 98%

    Demain, 21 Novembre, Mardi

    Heure Température Précipitation Vent Pression Humidité
    00:00 +9°C° 0,1 mm 1 m/s 751 mmHg 98%
    01:00 +9°C° 0,6 mm 1 m/s 751 mmHg 98%
    02:00 +9°C° 0,6 mm 1 m/s 750 mmHg 98%
    03:00 +9°C° 0,6 mm 1 m/s 749 mmHg 98%
    04:00 +9°C° 1,2 mm 1 m/s 749 mmHg 98%
    05:00 +9°C° 1,2 mm 1 m/s 749 mmHg 98%
    06:00 +9°C° 1,2 mm 1 m/s 748 mmHg 98%
    07:00 +9°C° 1,1 mm 1 m/s 748 mmHg 98%
    08:00 +10°C° 1,1 mm 1 m/s 747 mmHg 98%
    09:00 +10°C° 1,1 mm 1 m/s 747 mmHg 98%
    10:00 +9°C° 0,9 mm 2 m/s 746 mmHg 97%
    11:00 +10°C° 0,9 mm 2 m/s 745 mmHg 97%
    12:00 +10°C° 0,9 mm 3 m/s 745 mmHg 97%
    13:00 +10°C° 0,9 mm 3 m/s 744 mmHg 96%
    14:00 +10°C° 0,9 mm 4 m/s 743 mmHg 95%
    15:00 +9°C° 0,9 mm 5 m/s 741 mmHg 94%
    16:00 +10°C° 0,2 mm 5 m/s 741 mmHg 95%
    17:00 +10°C° 0,2 mm 5 m/s 740 mmHg 95%
    18:00 +10°C° 0,2 mm 5 m/s 739 mmHg 95%
    19:00 +10°C° 0,3 mm 5 m/s 739 mmHg 95%
    20:00 +12°C° 0,3 mm 5 m/s 738 mmHg 94%
    21:00 +12°C° 0,3 mm 5 m/s 738 mmHg 94%
    22:00 +11°C° 0,6 mm 6 m/s 738 mmHg 93%
    23:00 +11°C° 0,6 mm 6 m/s 737 mmHg 93%

    Après-demain, 22 Novembre, Mercredi

    Heure Température Précipitation Vent Pression Humidité
    00:00 +11°C° 0,6 mm 6 m/s 737 mmHg 92%
    01:00 +10°C° 0,1 mm 5 m/s 737 mmHg 92%
    02:00 +10°C° 0,1 mm 5 m/s 737 mmHg 93%
    03:00 +10°C° 0,1 mm 5 m/s 736 mmHg 93%
    04:00 +9°C° 0 mm 5 m/s 736 mmHg 93%
    05:00 +10°C° 0 mm 4 m/s 736 mmHg 92%
    06:00 +8°C° 0 mm 4 m/s 736 mmHg 92%
    07:00 +9°C° 0 mm 3 m/s 737 mmHg 92%
    08:00 +9°C° 0 mm 3 m/s 737 mmHg 92%
    09:00 +8°C° 0 mm 2 m/s 737 mmHg 92%
    10:00 +8°C° 0,1 mm 2 m/s 737 mmHg 91%
    11:00 +10°C° 0,1 mm 1 m/s 737 mmHg 90%
    12:00 +9°C° 0,1 mm 0 m/s 736 mmHg 89%
    13:00 +9°C° 0,2 mm 1 m/s 736 mmHg 90%
    14:00 +8°C° 0,2 mm 2 m/s 735 mmHg 91%
    15:00 +8°C° 0,2 mm 2 m/s 735 mmHg 92%
    16:00 +8°C° 0,3 mm 3 m/s 734 mmHg 92%
    17:00 +6°C° 0,3 mm 4 m/s 734 mmHg 92%
    18:00 +6°C° 0,3 mm 5 m/s 733 mmHg 92%
    19:00 +6°C° 1,1 mm 5 m/s 733 mmHg 92%
    20:00 +6°C° 1,1 mm 5 m/s 732 mmHg 91%
    21:00 +4°C° 1,1 mm 6 m/s 732 mmHg 91%
    22:00 +5°C° 0,7 mm 5 m/s 731 mmHg 91%
    23:00 +5°C° 0,7 mm 5 m/s 731 mmHg 91%

    23 Novembre, Jeudi

    Heure Température Précipitation Vent Pression Humidité
    00:00 +5°C° 0,7 mm 5 m/s 731 mmHg 92%
    01:00 +6°C° 0,5 mm 5 m/s 731 mmHg 92%
    02:00 +6°C° 0,5 mm 5 m/s 730 mmHg 92%
    03:00 +6°C° 0,5 mm 5 m/s 730 mmHg 93%
    04:00 +6°C° 0,7 mm 5 m/s 731 mmHg 88%
    05:00 +4°C° 0,7 mm 6 m/s 731 mmHg 84%
    06:00 +4°C° 0,7 mm 7 m/s 732 mmHg 79%
    07:00 +4°C° 0,1 mm 7 m/s 732 mmHg 78%
    08:00 +4°C° 0,1 mm 8 m/s 733 mmHg 78%
    09:00 +4°C° 0,1 mm 8 m/s 733 mmHg 77%
    10:00 +4°C° 0,6 mm 8 m/s 733 mmHg 76%
    11:00 +3°C° 0,6 mm 9 m/s 733 mmHg 75%
    12:00 +5°C° 0,6 mm 10 m/s 733 mmHg 74%
    13:00 +5°C° 0,5 mm 9 m/s 734 mmHg 77%
    14:00 +5°C° 0,5 mm 8 m/s 734 mmHg 80%
    15:00 +5°C° 0,5 mm 7 m/s 735 mmHg 84%
    16:00 +4°C° 0 mm 6 m/s 736 mmHg 84%
    17:00 +3°C° 0 mm 5 m/s 738 mmHg 85%
    18:00 +3°C° 0 mm 5 m/s 739 mmHg 86%
    19:00 +3°C° 0 mm 4 m/s 741 mmHg 86%
    20:00 +1°C° 0 mm 4 m/s 742 mmHg 86%
    21:00 +2°C° 0 mm 3 m/s 744 mmHg 86%
    22:00 +2°C° 0 mm 2 m/s 745 mmHg 87%
    23:00 +2°C° 0 mm 2 m/s 746 mmHg 88%

    24 Novembre, Vendredi

    Heure Température Précipitation Vent Pression Humidité
    00:00 +3°C° 0 mm 1 m/s 747 mmHg 88%
    01:00 +3°C° 0 mm 1 m/s 747 mmHg 88%
    02:00 +3°C° 0 mm 1 m/s 747 mmHg 88%
    03:00 +2°C° 0 mm 1 m/s 748 mmHg 88%
    04:00 +1°C° 0 mm 0 m/s 748 mmHg 88%
    05:00 +1°C° 0 mm 0 m/s 748 mmHg 87%
    06:00 +1°C° 0 mm 0 m/s 748 mmHg 87%
    07:00 +2°C° 0 mm 0 m/s 748 mmHg 86%
    08:00 +2°C° 0 mm 0 m/s 749 mmHg 85%
    09:00 +2°C° 0 mm 0 m/s 749 mmHg 84%
    10:00 +3°C° 0 mm 0 m/s 749 mmHg 83%
    11:00 +4°C° 0 mm 1 m/s 749 mmHg 81%
    12:00 +5°C° 0 mm 1 m/s 749 mmHg 79%
    13:00 +5°C° 0 mm 1 m/s 749 mmHg 81%
    14:00 +4°C° 0 mm 1 m/s 749 mmHg 82%
    15:00 +3°C° 0 mm 2 m/s 749 mmHg 84%
    16:00 +2°C° 0 mm 2 m/s 749 mmHg 85%
    17:00 +2°C° 0 mm 2 m/s 749 mmHg 86%
    18:00 +1°C° 0 mm 2 m/s 750 mmHg 87%
    19:00 +1°C° 0 mm 2 m/s 750 mmHg 86%
    20:00 +1°C° 0 mm 2 m/s 750 mmHg 85%
    21:00 +1°C° 0 mm 2 m/s 751 mmHg 84%
    22:00 +1°C° 0 mm 2 m/s 751 mmHg 84%
    23:00 +1°C° 0 mm 2 m/s 751 mmHg 83%

    25 Novembre, Samedi

    Heure Température Précipitation Vent Pression Humidité
    00:00 0°C° 0 mm 3 m/s 752 mmHg 83%
    01:00 0°C° 0 mm 3 m/s 752 mmHg 82%
    02:00 0°C° 0 mm 3 m/s 752 mmHg 82%
    03:00 0°C° 0 mm 3 m/s 752 mmHg 81%
    04:00 0°C° 0 mm 3 m/s 752 mmHg 81%
    05:00 0°C° 0 mm 3 m/s 752 mmHg 81%
    06:00 0°C° 0 mm 3 m/s 753 mmHg 80%
    07:00 0°C° 0 mm 3 m/s 753 mmHg 80%
    08:00 -1°C° 0 mm 4 m/s 753 mmHg 79%
    09:00 -1°C° 0 mm 4 m/s 754 mmHg 79%
    10:00 0°C° 0,1 mm 4 m/s 754 mmHg 75%
    11:00 +1°C° 0,1 mm 5 m/s 754 mmHg 71%
    12:00 +2°C° 0,1 mm 5 m/s 755 mmHg 67%
    13:00 +2°C° 0 mm 5 m/s 755 mmHg 70%
    14:00 +1°C° 0 mm 5 m/s 755 mmHg 72%
    15:00 +1°C° 0 mm 5 m/s 755 mmHg 74%
    16:00 +1°C° 0 mm 5 m/s 756 mmHg 76%
    17:00 0°C° 0 mm 5 m/s 756 mmHg 78%
    18:00 0°C° 0 mm 5 m/s 757 mmHg 80%
    19:00 0°C° 0 mm 5 m/s 757 mmHg 80%
    20:00 0°C° 0 mm 5 m/s 758 mmHg 81%
    21:00 0°C° 0 mm 5 m/s 758 mmHg 81%
    22:00 0°C° 0 mm 5 m/s 758 mmHg 81%
    23:00 0°C° 0 mm 5 m/s 759 mmHg 80%
    Voir plus